COSMOS 2436 (723) (32395 NORAD) Tracking and Keplerian Element Data

This shows tracking and keplerian element data for the satellite.

Feedback or suggestion? Click here.




ElementValue
Catalog32395
NameCOSMOS 2436 (723)
Epoch Orbit8537
Epoch Day351.72670326
Epoch Year2018
RAAN285.271
Inclination64.8177
Eccentricity0.0016102
Argument of Perigee353.6931
Mean Anonmoly254.7872
Mean Motion2.13104284
Decay Rate-2.5E-07
L11 32395U 07065C 18351.72670326 -.00000025 00000-0 10000-3 0 9993
L22 32395 64.8177 285.2710 0016102 353.6931 254.7872 2.13104284 85375

Live tracking and technical data element details for COSMOS 2436 (723) (NORAD 32395). COSMOS 2436 (723) can be tracked NOW for your location showing map with azimuth and elevation plus other details from your city location.

Track the satellite on the map from your city or location and see movement details for azimuth, elevation, latitude, longitude, range, height, and movement on the map or in text.







IsCatalogInMostPopularTable: catalog: 32395, numindb: 53
Update: records affected: 1



GetName: 32395 COSMOS 2436 (723)

Hit Count: updated at: Wed, 19 Dec 2018 16:45:52 GMT